#timestamp,LO_Frequency,Hit,StdDev 
1673571615.3,286046994.9,N
1673571635.2,286046997.7,N
1673571655.9,286046995.2,N
1673571675.7,286046997.6,N
1673571695.6,286046997.1,N
1673571715.4,286046995.5,Y
1673571735.2,286047001.1,P
1673571755.1,286046998.4,N
1673571756.0,286046998.4,N
1673571775.8,286046998.8,N
1673571795.7,286047000.9,N
1673571815.5,286047000.2,N
1673571835.3,286047001.0,N
1673571855.2,286046999.0,N
1673571875.0,286046999.4,N
1673571875.9,286046999.4,N
1673571895.8,286046999.2,N
1673571915.6,286046998.7,N
1673571935.4,286046999.2,N
1673571955.3,286046997.0,N
1673571975.1,286046997.1,N
1673571995.8,286046996.6,N
1673572015.7,286047000.9,N
1673572035.5,286046999.4,N
1673572055.4,286046997.3,N
1673572075.2,286046997.2,N
1673572095.0,286046999.2,N
1673572095.9,286046999.2,N
1673572115.8,286046997.2,N
1673572135.6,286046999.5,N
1673572155.4,286046998.7,N
1673572175.3,286046998.7,N
1673572195.1,286047001.1,N
1673572215.8,286047000.9,N
1673572235.7,286046999.9,N
1673572255.5,286047002.8,N
1673572275.4,286047000.2,N
1673572295.2,286046998.2,N
1673572315.0,286046999.3,N
1673572315.9,286046999.3,N
1673572335.8,286047000.9,N
1673572355.6,286046998.6,N
1673572375.4,286046999.1,N
1673572395.3,286046999.2,N
1673572415.1,286046999.4,N
1673572435.9,286046998.9,N
1673572455.7,286046998.3,N
1673572475.5,286046998.6,N
1673572495.4,286046998.4,N
1673572515.2,286046999.9,N
1673572535.0,286046998.2,N
1673572536.0,286046998.2,N
1673572555.8,286046997.4,N
1673572575.6,286046997.4,N
1673572595.5,286046998.2,N
1673572615.3,286046998.5,N
1673572635.1,286046998.3,N
1673572655.9,286046998.4,N
1673572675.7,286046998.6,N
1673572695.6,286047001.0,N
1673572715.4,286046999.4,N
1673572735.2,286047001.2,N
1673572755.1,286046996.7,N
1673572756.0,286046996.7,N
1673572775.8,286046999.4,N
1673572795.6,286046998.7,N
1673572815.5,286047001.1,N
1673572835.3,286047000.6,N
1673572855.2,286046998.5,N
1673572875.9,286046998.7,N
1673572895.7,286047000.6,N
1673572915.6,286047000.6,N
1673572935.4,286047001.1,N
1673572955.2,286047000.1,N
1673572975.1,286047000.2,N
1673572976.0,286047000.2,N
1673572995.8,286046999.9,N
1673573015.7,286047000.0,N
1673573035.5,286047002.7,N
1673573055.3,286047000.4,N
1673573075.2,286047000.1,N
1673573095.0,286047002.2,N
1673573095.9,286047002.2,N
1673573115.7,286047002.8,N
1673573135.6,286047002.8,N
1673573155.4,286047000.8,N
1673573175.3,286046998.3,N
1673573195.1,286047000.7,N
1673573215.8,286047000.9,N
1673573235.7,286046998.3,N
1673573255.5,286046998.4,N
1673573275.4,286046999.8,N
1673573295.2,286047001.0,N
1673573315.0,286047000.0,N
1673573315.9,286047000.0,N
1673573335.8,286047000.3,N
1673573355.6,286047002.7,N
1673573375.4,286047002.3,N
1673573395.3,286047002.4,N
1673573415.1,286047000.7,N
1673573435.9,286047000.5,N
1673573455.7,286046998.2,N
1673573475.5,286046998.2,N
1673573495.4,286046998.2,N
1673573515.2,286046999.9,N
1673573535.0,286047000.1,N
1673573535.9,286047000.1,N
1673573555.8,286047000.3,N
1673573575.6,286047002.1,N
1673573595.5,286046999.7,N
1673573615.3,286047002.4,N
1673573635.1,286047002.5,N
1673573655.9,286047002.5,N
1673573675.7,286047000.1,N
1673573695.5,286047000.0,N
1673573715.4,286046999.7,N
1673573735.2,286047001.9,N
1673573755.1,286047001.5,N
1673573756.0,286047001.5,N
1673573775.8,286047001.6,N
1673573795.6,286047001.7,N
1673573815.5,286047002.4,N
1673573835.3,286047001.7,N
1673573855.5,286047002.5,N
1673573875.3,286047002.1,N
1673573895.1,286046999.7,N
1673573915.9,286047002.8,N
1673573935.7,286047000.5,N
1673573955.5,286046999.0,N
1673573975.4,286046998.7,N
1673573995.2,286046996.7,N
1673574015.0,286046997.3,N
1673574016.0,286046997.3,N
1673574035.8,286047001.2,N
1673574055.6,286047000.0,N
1673574075.5,286047002.7,N
1673574095.3,286047002.6,N
1673574115.1,286046999.7,N
1673574135.9,286047000.8,N
1673574155.7,286047002.8,N
1673574175.6,286047002.1,N
1673574195.4,286047002.1,N
1673574215.2,286047000.2,N
1673574235.1,286047002.4,N
1673574236.0,286047002.4,N
1673574255.8,286047000.2,N
1673574275.7,286047002.0,N
1673574295.5,286047002.4,N
1673574315.3,286047000.0,N
1673574335.2,286047000.1,N
1673574355.0,286047001.1,N
1673574355.9,286047001.1,N
1673574375.8,286046997.8,N
1673574395.6,286046999.5,N
1673574415.4,286047001.1,N
1673574435.3,286046998.9,N
1673574455.1,286046998.4,N
1673574475.9,286046999.5,N
1673574495.7,286046998.0,N
1673574515.5,286046999.3,N
1673574535.4,286046998.6,N
1673574555.2,286046998.1,N
1673574575.0,286046999.5,N
1673574576.0,286046999.5,N
1673574595.8,286046997.2,N
1673574615.6,286046998.4,N
1673574635.5,286047000.9,N
1673574655.3,286046999.2,N
1673574675.2,286046999.6,N
1673574695.0,286046999.0,N
1673574695.9,286046999.0,N
1673574715.8,286046998.1,N
1673574735.6,286046999.5,N
1673574755.4,286046998.8,N
1673574775.3,286047000.6,N
1673574795.1,286047002.1,N
1673574815.9,286047002.0,N
1673574835.7,286047001.9,N
1673574855.5,286047001.4,N
1673574875.4,286047002.1,N
1673574895.2,286047001.1,N
1673574915.0,286046997.7,N
1673574915.9,286046997.7,N
1673574935.8,286046996.3,N
1673574955.6,286046997.9,N
1673574975.5,286046999.9,N
1673574995.3,286046999.9,N
1673575015.1,286047000.1,N
1673575035.9,286046999.0,N
1673575055.7,286046998.7,N
1673575075.6,286046999.9,N
1673575095.4,286047002.1,N
1673575115.2,286047002.2,N
1673575135.1,286047003.7,N
1673575136.0,286047003.7,N
1673575155.8,286047001.7,N
1673575175.7,286047001.8,N
1673575195.5,286047001.4,N
